SCP
0 0 0 0 0 0 0 0 0 0 0 0 0 0 0 0 0 0 0 0 0 0 0 0 0 0 0 0 0 0 0 0
0 0 0 0 0 0 0 0 0 0 0 0 0 0 0 0 0 0 0 0 0 0 0 0 0 0 0 0 0 0 0 0
0 0 0 0 0 0 0 0 0 0 0 0 0 0 0 0 0 0 0 0 0 0 0 0 0 0 0 0 0 0 0 0
0 0 0 0 0 0 0 0 0 0 0 0 0 0 0 0 0 0 0 0 0 0 0 0 0 0 0 0 0 0 0 0
0 0 0 0 0 0 0 0 0 0 0 0 0 0 0 0 0 0 0 0 0 0 0 0 0 0 0 0 0 0 0 0
0 0 0 0 0 0 0 0 0 0 0 0 0 0 0 0 0 0 0 0 0 0 0 0 0 0 0 0 0 0 0 0
0 0 0 0 0 0 0 0 0 0 0 0 0 0 0 0 0 0 0 0 0 0 0 0 0 0 0 0 0 0 0 0
0 0 0 0 0 0 0 0 0 0 0 0 0 0 0 0 0 0 0 0 0 0 0 0 0 0 0 0 0 0 0 0
0 0 0 0 0 0 0 0 0 0 0 0 0 0 0 0 0 0 0 0 0 0 0 0 0 0 0 0 0 0 0 0
0 0 0 0 0 0 0 0 0 0 0 0 0 0 0 0 0 0 0 0 0 0 0 0 0 0 0 0 0 0 0 0
0 0 0 0 0 0 0 0 0 0 0 0 0 0 0 0 0 0 0 0 0 0 0 0 0 0 0 0 0 0 0 0
0 0 0 0 0 0 0 0 0 0 0 0 0 0 0 0 0 0 0 0 0 0 0 0 0 0 0 0 0 0 0 0
0 0 0 0 0 0 0 0 0 0 0 0 0 0 0 0 0 0 0 0 0 0 0 0 0 0 0 0 0 0 0 0
0 0 0 0 0 0 0 0 0 0 0 0 0 0 0 0 0 0 0 0 0 0 0 0 0 0 0 0 0 0 0 0
0 0 0 0 0 0 0 0 0 0 0 0 0 0 0 0 0 0 0 0 0 0 0 0 0 0 0 0 0 0 0 0
0 0 0 0 0 0 0 0 0 0 0 0 0 0 0 0 0 0 0 0 0 0 0 0 0 0 0 0 0 0 0 0
0 0 0 0 0 0 0 0 0 0 0 0 0 0 0 0 0 0 0 0 0 0 0 0 0 0 0 0 0 0 0 0
0 0 0 0 0 0 0 0 0 0 0 0 0 0 0 0 0 0 0 0 0 0 0 0 0 0 0 0 0 0 0 0
0 0 0 0 0 0 0 0 0 0 0 0 0 0 0 0 0 0 0 0 0 0 0 0 0 0 0 0 0 0 0 0
0 0 0 0 0 0 0 0 0 0 0 0 0 0 0 0 0 0 0 0 0 0 0 0 0 0 0 0 0 0 0 0
Wind_Speed_500mb
62 65 64 61 60 61 61 60 60 62 65 65 64 60 56 58 55 52 48 37 36 36 33 33 30 29 30 24 20 18 15 15
58 57 55 57 58 57 56 56 58 58 57 56 58 58 56 52 52 52 47 45 45 45 35 33 30 26 20 15 13 11 12 14
53 52 52 51 51 51 49 48 47 44 42 40 43 51 53 55 56 50 44 41 36 33 30 27 24 20 16 12 10 10 13 17
52 52 48 49 52 50 48 44 40 39 37 39 41 48 56 58 55 48 41 39 37 32 30 27 23 17 12 9 10 15 19 23
56 53 52 53 50 47 45 43 45 45 43 42 46 50 53 54 49 44 43 39 38 36 31 25 18 12 9 10 14 18 20 24
59 57 56 53 49 46 46 47 46 48 48 50 51 53 53 51 51 49 47 44 40 34 28 21 15 11 10 13 16 19 24 28
64 61 60 58 56 54 52 50 50 51 52 53 55 56 55 54 52 50 47 43 37 32 25 19 13 11 15 17 20 23 25 25
72 69 67 64 60 60 58 55 56 57 58 58 58 58 57 56 54 50 46 40 36 29 22 16 13 15 18 21 23 24 23 20
72 73 72 67 65 61 60 63 63 65 63 61 61 60 59 56 53 50 43 37 32 25 20 16 15 18 20 22 22 21 18 15
63 69 72 72 69 67 68 68 69 68 66 64 63 61 59 56 52 46 40 36 29 24 18 17 19 21 22 22 21 16 15 17
62 62 71 75 73 73 77 77 76 73 69 65 63 60 57 54 49 44 40 34 28 22 22 22 22 23 23 21 18 16 18 22
61 61 64 71 75 80 82 83 77 72 68 65 62 59 55 52 48 44 39 32 27 28 26 25 25 25 23 20 20 20 22 27
63 63 64 65 75 84 86 82 76 73 70 67 64 61 58 53 49 44 37 33 33 32 31 28 26 25 24 23 22 22 24 29
50 57 58 62 74 85 85 82 79 76 72 69 65 62 59 54 49 41 42 38 37 37 35 30 29 29 27 25 24 26 29 33
38 47 55 61 70 82 80 78 77 75 74 71 69 66 60 52 51 50 44 42 40 43 39 36 34 32 31 29 28 31 35 38
27 36 44 53 64 73 73 73 75 74 73 72 69 62 61 64 56 51 45 40 46 42 42 41 38 35 35 34 36 40 40 44
16 24 31 40 52 64 68 71 74 76 77 76 75 73 67 61 59 52 44 50 48 47 46 44 42 43 43 42 45 44 44 48
8 10 18 27 41 52 60 65 67 71 74 75 73 71 68 65 59 50 55 51 51 52 50 48 49 49 48 49 51 47 50 51
7 9 15 24 35 46 55 63 68 72 73 71 70 69 66 62 58 53 52 53 52 53 51 52 53 52 53 55 53 52 53 52
12 14 20 25 30 42 53 60 64 67 68 70 69 66 63 60 58 57 56 57 55 53 54 54 55 55 59 59 57 55 53 51
Wind_Direction_500mb
215 213 213 217 219 220 221 226 231 236 238 238 236 231 223 220 225 229 228 233 234 235 237 239 228 226 239 246 248 256 267 280
207 209 210 214 219 223 226 232 238 238 236 232 227 222 218 212 214 219 218 231 233 236 218 219 225 224 222 222 237 258 280 302
210 213 214 217 223 227 226 225 224 220 216 210 208 205 201 198 202 209 225 226 215 201 202 199 198 198 206 222 251 286 303 308
211 215 218 219 216 215 211 208 209 207 200 197 198 194 188 192 200 211 220 196 189 188 188 190 192 197 214 245 282 298 311 318
213 215 215 214 212 208 204 200 202 203 198 196 195 195 195 198 201 204 195 189 184 184 189 190 195 209 237 276 299 306 313 324
218 215 213 211 209 208 206 202 197 199 196 195 194 193 195 196 195 190 188 184 186 189 188 191 200 226 268 288 300 315 323 325
224 221 218 215 212 209 207 202 199 196 193 192 191 191 189 188 188 188 188 188 188 188 191 199 219 261 286 299 308 314 315 317
228 225 223 220 217 212 207 202 198 194 191 188 188 188 187 188 189 191 191 190 191 192 199 217 247 273 289 297 301 303 303 308
237 232 227 222 218 213 208 204 199 196 194 192 191 190 190 191 193 194 192 193 197 202 216 239 265 278 282 285 288 290 298 307
252 238 231 226 221 215 209 205 203 200 197 197 196 196 196 196 196 195 197 200 206 215 232 252 260 269 273 276 280 284 293 314
251 239 231 227 222 216 212 209 206 204 201 200 201 201 201 200 199 200 202 207 215 229 241 248 256 264 269 270 267 279 297 311
251 246 238 227 219 216 214 213 209 206 204 203 203 202 202 203 202 204 207 214 226 235 239 246 255 261 262 262 272 288 305 317
247 243 238 229 220 218 216 214 209 206 205 205 206 204 203 205 206 208 212 222 231 235 240 246 253 256 259 265 273 290 303 314
252 244 237 228 221 220 217 212 208 206 207 207 207 206 206 207 208 216 221 226 232 241 242 246 249 253 257 264 279 293 302 310
248 240 233 227 223 220 218 212 210 209 208 208 208 207 207 210 223 219 224 230 240 239 241 245 249 253 259 269 283 292 302 312
249 243 239 231 223 219 214 214 211 211 211 210 209 210 223 218 217 223 226 238 241 242 244 247 250 256 263 273 282 290 301 307
257 245 242 234 225 219 214 214 215 213 212 213 214 214 212 215 220 224 233 242 242 245 247 249 253 259 266 272 279 289 296 302
307 274 251 240 229 222 219 220 220 221 220 218 217 216 218 220 223 233 238 241 244 247 252 256 258 263 268 273 280 287 291 297
290 265 251 241 232 226 224 225 224 222 222 222 220 221 223 226 230 234 240 246 251 254 257 261 265 268 270 274 280 282 288 292
291 274 258 252 242 233 230 230 229 226 224 223 224 227 230 232 234 238 242 246 250 255 260 265 268 269 271 275 276 280 284 289
Wind_Speed_850mb
62 65 64 61 60 61 61 60 60 62 65 65 64 60 56 58 55 52 48 37 36 36 33 33 30 29 30 24 20 18 15 15
58 57 55 57 58 57 56 56 58 58 57 56 58 58 56 52 52 52 47 45 45 45 35 33 30 26 20 15 13 11 12 14
53 52 52 51 51 51 49 48 47 44 42 40 43 51 53 55 56 50 44 41 36 33 30 27 24 20 16 12 10 10 13 17
52 52 48 49 52 50 48 44 40 39 37 39 41 48 56 58 55 48 41 39 37 32 30 27 23 17 12 9 10 15 19 23
56 53 52 53 50 47 45 43 45 45 43 42 46 50 53 54 49 44 43 39 38 36 31 25 18 12 9 10 14 18 20 24
59 57 56 53 49 46 46 47 46 48 48 50 51 53 53 51 51 49 47 44 40 34 28 21 15 11 10 13 16 19 24 28
64 61 60 58 56 54 52 50 50 51 52 53 55 56 55 54 52 50 47 43 37 32 25 19 13 11 15 17 20 23 25 25
72 69 67 64 60 60 58 55 56 57 58 58 58 58 57 56 54 50 46 40 36 29 22 16 13 15 18 21 23 24 23 20
72 73 72 67 65 61 60 63 63 65 63 61 61 60 59 56 53 50 43 37 32 25 20 16 15 18 20 22 22 21 18 15
63 69 72 72 69 67 68 68 69 68 66 64 63 61 59 56 52 46 40 36 29 24 18 17 19 21 22 22 21 16 15 17
62 62 71 75 73 73 77 77 76 73 69 65 63 60 57 54 49 44 40 34 28 22 22 22 22 23 23 21 18 16 18 22
61 61 64 71 75 80 82 83 77 72 68 65 62 59 55 52 48 44 39 32 27 28 26 25 25 25 23 20 20 20 22 27
63 63 64 65 75 84 86 82 76 73 70 67 64 61 58 53 49 44 37 33 33 32 31 28 26 25 24 23 22 22 24 29
50 57 58 62 74 85 85 82 79 76 72 69 65 62 59 54 49 41 42 38 37 37 35 30 29 29 27 25 24 26 29 33
38 47 55 61 70 82 80 78 77 75 74 71 69 66 60 52 51 50 44 42 40 43 39 36 34 32 31 29 28 31 35 38
27 36 44 53 64 73 73 73 75 74 73 72 69 62 61 64 56 51 45 40 46 42 42 41 38 35 35 34 36 40 40 44
16 24 31 40 52 64 68 71 74 76 77 76 75 73 67 61 59 52 44 50 48 47 46 44 42 43 43 42 45 44 44 48
8 10 18 27 41 52 60 65 67 71 74 75 73 71 68 65 59 50 55 51 51 52 50 48 49 49 48 49 51 47 50 51
7 9 15 24 35 46 55 63 68 72 73 71 70 69 66 62 58 53 52 53 52 53 51 52 53 52 53 55 53 52 53 52
12 14 20 25 30 42 53 60 64 67 68 70 69 66 63 60 58 57 56 57 55 53 54 54 55 55 59 59 57 55 53 51
Wind_Direction_850mb
215 213 213 217 219 220 221 226 231 236 238 238 236 231 223 220 225 229 228 233 234 235 237 239 228 226 239 246 248 256 267 280
207 209 210 214 219 223 226 232 238 238 236 232 227 222 218 212 214 219 218 231 233 236 218 219 225 224 222 222 237 258 280 302
210 213 214 217 223 227 226 225 224 220 216 210 208 205 201 198 202 209 225 226 215 201 202 199 198 198 206 222 251 286 303 308
211 215 218 219 216 215 211 208 209 207 200 197 198 194 188 192 200 211 220 196 189 188 188 190 192 197 214 245 282 298 311 318
213 215 215 214 212 208 204 200 202 203 198 196 195 195 195 198 201 204 195 189 184 184 189 190 195 209 237 276 299 306 313 324
218 215 213 211 209 208 206 202 197 199 196 195 194 193 195 196 195 190 188 184 186 189 188 191 200 226 268 288 300 315 323 325
224 221 218 215 212 209 207 202 199 196 193 192 191 191 189 188 188 188 188 188 188 188 191 199 219 261 286 299 308 314 315 317
228 225 223 220 217 212 207 202 198 194 191 188 188 188 187 188 189 191 191 190 191 192 199 217 247 273 289 297 301 303 303 308
237 232 227 222 218 213 208 204 199 196 194 192 191 190 190 191 193 194 192 193 197 202 216 239 265 278 282 285 288 290 298 307
252 238 231 226 221 215 209 205 203 200 197 197 196 196 196 196 196 195 197 200 206 215 232 252 260 269 273 276 280 284 293 314
251 239 231 227 222 216 212 209 206 204 201 200 201 201 201 200 199 200 202 207 215 229 241 248 256 264 269 270 267 279 297 311
251 246 238 227 219 216 214 213 209 206 204 203 203 202 202 203 202 204 207 214 226 235 239 246 255 261 262 262 272 288 305 317
247 243 238 229 220 218 216 214 209 206 205 205 206 204 203 205 206 208 212 222 231 235 240 246 253 256 259 265 273 290 303 314
252 244 237 228 221 220 217 212 208 206 207 207 207 206 206 207 208 216 221 226 232 241 242 246 249 253 257 264 279 293 302 310
248 240 233 227 223 220 218 212 210 209 208 208 208 207 207 210 223 219 224 230 240 239 241 245 249 253 259 269 283 292 302 312
249 243 239 231 223 219 214 214 211 211 211 210 209 210 223 218 217 223 226 238 241 242 244 247 250 256 263 273 282 290 301 307
257 245 242 234 225 219 214 214 215 213 212 213 214 214 212 215 220 224 233 242 242 245 247 249 253 259 266 272 279 289 296 302
307 274 251 240 229 222 219 220 220 221 220 218 217 216 218 220 223 233 238 241 244 247 252 256 258 263 268 273 280 287 291 297
290 265 251 241 232 226 224 225 224 222 222 222 220 221 223 226 230 234 240 246 251 254 257 261 265 268 270 274 280 282 288 292
291 274 258 252 242 233 230 230 229 226 224 223 224 227 230 232 234 238 242 246 250 255 260 265 268 269 271 275 276 280 284 289